Regional Weather Roundup
Issued by NWS Newport/Morehead, NC

Current Version | Previous Version | Graphics & Text | Print | Product List | Glossary Off
Versions: 1 2 3 4 5 6 7 8 9 10 11 12 13 14 15 16 17 18 19 20 21 22 23 24 25 26 27 28 29 30 31 32 33 34 35 36 37 38 39 40 41 42 43 44 45 46 47 48 49 50
000 ASUS42 KMHX 021413 RWRMHX WEATHER ROUNDUP FOR EASTERN NORTH CAROLINA NATIONAL WEATHER SERVICE NEWPORT/MOREHEAD CITY NC 1000 AM EDT SUN AUG 02 2015 NOTE: "FAIR" INDICATES FEW OR NO CLOUDS BELOW 12,000 FEET WITH NO SIGNIFICANT WEATHER AND/OR OBSTRUCTIONS TO VISIBILITY NCZ015>017-031-032-045>047-102-103-021500- NORTH COAST CITY SKY/WX TMP DP RH WIND PRES REMARKS EDENTON N/A 81 68 64 CALM 29.93S ELIZABETH CITY MOSUNNY 84 71 65 N5 29.93R KITTY HAWK MOSUNNY 90 71 54 CALM 29.92R MANTEO MOSUNNY 83 70 64 N3 29.93S $$ NCZ045>047-081-094-103-104-021500- CENTRAL COAST CITY SKY/WX TMP DP RH WIND PRES REMARKS FRISCO SUNNY 84 73 69 CALM 29.94S SWANQUARTER N/A 88 N/A N/A CALM 29.91R $$ NCZ095-097-098-100-101-021500- SOUTHERN COAST CITY SKY/WX TMP DP RH WIND PRES REMARKS BEAUFORT SUNNY 83 77 82 VRB3 29.94R CEDAR ISLAND N/A 82 N/A N/A NW3 29.97S JACKSONVILLE SUNNY 85 72 65 CALM 29.94R PINEY ISLAND SUNNY N/A N/A N/A N5 29.93S WILMINGTON SUNNY 84 74 71 CALM 29.94S $$ NCZ011>013-027>030-043-044-078>080-089-090>093-098-021500- COASTAL PLAIN CITY SKY/WX TMP DP RH WIND PRES REMARKS AHOSKIE MOSUNNY 78 65 64 N3 29.95R CLINTON SUNNY 83 67 59 E5 29.95F ELIZABETHTOWN SUNNY 83 68 59 CALM 29.96R GOLDSBORO SUNNY 82 67 59 VRB1 29.94R GREENVILLE SUNNY 81 68 65 CALM 29.96S HAVELOCK MOSUNNY 85 75 72 CALM 29.95S KENANSVILLE SUNNY 81 68 63 CALM 29.96S KINSTON SUNNY 81 68 65 CALM 29.96R NEW BERN SUNNY 84 72 67 N3 29.95R RICHLANDS SUNNY 82 70 65 NW3 29.95R ROCKY MOUNT SUNNY 84 61 45 N8 29.96R WASHINGTON SUNNY 80 70 71 CALM 29.94S WHITEVILLE SUNNY 82 71 69 NE5 29.95S $$ AMZ130-135-150-152-154-156-158-170-250-252-270-ANZ085-086-088-633-658-670-021500- MARINE OBSERVATIONS STATION/POSITION TIME TEMP WIND PRES WAVE SWELL AIR SEA DIR/SP/G HT/PER HT/PER (UTC) (F) (DEG/KT/KT) (MB) (FT/S) (FT/S) CHESAPEAKE LIGHT 1400 80 350/ 4/ 4 1013.9 64 E VA BEACH 1350 81 82 280/ 2/ 4 1012.8 3/ 8 3/ 8 DUCK 1300 80 76 300/ 5/ 8 1012.4 2 E DUCK 1311 79 N/A 2/12 2/12 OREGON INLET 1300 81 81 290/ 5/ 6 1013.2 13E OREGON INLT 1400 81 N/A 2/11 2/11 HATTERAS CG 1300 81 81 300/ 3/ 4 1013.5 DIAMOND BUOY 1350 81 85 310/ 6/ 8 1013.7 3/ 7 3/ 7 CAPE LOOKOUT 1400 84 290/ 3/ 4 1013.5 BEAUFORT LAB 1300 80 82 340/ 5/ 8 1012.9 30 SE NEW RVR IN NOT AVBL 27 SE WRIGHTSVLE 1300 78 82 290/ 6/ 8 N/A 5 SE WRIGHTSVLE 1308 81 83 290/ 6/ 10 1013.6 225 S CAPE HAT 1350 83 81 210/ 16/ 19 1015.7 7/ 8 3/ 8 41 SE CHARLESTON 1350 78 84 260/ 10/ 12 1013.6 4/ 7 3/ 7 $$

USA.gov is the U.S. government's official web portal to all federal, state and local government web resources and services.